Change the Weather History Date:

Monday, March 18, 2013

  Actual Average Record
Temperature  
Mean Temperature 18 °F -  
Max Temperature 33 °F 37 °F 73 °F (2012)
Min Temperature 3 °F 19 °F 3 °F (2013)
Degree Days  
Heating Degree Days 47    
Moisture  
Dew Point 8 °F    
Average Humidity 61    
Maximum Humidity 93    
Minimum Humidity 20    
Precipitation  
Precipitation 0.06 in - - ()
Sea Level Pressure  
Sea Level Pressure 30.31 in    
Wind  
Wind Speed 1 mph (South)    
Max Wind Speed 9 mph    
Max Gust Speed -    
Visibility 7 miles    
Events Snow    
Averages and records for this station are not official NWS values.
T = Trace of Precipitation, MM = Missing Value Source: NWS Daily Summary

Daily Weather History Graph

Daily Weather History Graph

Search for Another Location

Airport or City:

Trip Planner

Search our weather history database for the weather conditions in past years. The results will help you decide how hot, cold, wet, or windy it might be!

Date:

Astronomy

Mar. 18, 2013 Rise Set
Actual Time 6:54 AM EDT 6:58 PM EDT
Civil Twilight 6:26 AM EDT 7:26 PM EDT
Nautical Twilight 5:53 AM EDT 7:59 PM EDT
Astronomical Twilight 5:19 AM EDT 8:33 PM EDT
Moon 10:43 AM EDT (3/18) 1:02 AM EDT (3/18)
Length of Visible Light 13h 00m
Length of Day
12h 03m
Waxing Crescent, 40% of the Moon is Illuminated
Mar 18
Waxing Crescent
Mar 19
First Quarter
Mar 27
Full
Apr 3
Last Quarter
Apr 10
New

Hourly Weather History & Observations

Time (EDT) Temp. Windchill Dew Point Humidity Pressure Visibility Wind Dir Wind Speed Gust Speed Precip Events Conditions
12:52 AM 15.1 °F - -0.0 °F 51% 30.36 in 10.0 mi Calm Calm - N/A   Clear
1:52 AM 10.9 °F - 1.0 °F 64% 30.37 in 10.0 mi Calm Calm - N/A   Clear
2:52 AM 8.1 °F - 1.0 °F 73% 30.39 in 10.0 mi Calm Calm - N/A   Clear
3:52 AM 7.0 °F - -0.0 °F 73% 30.39 in 10.0 mi Calm Calm - N/A   Clear
4:52 AM 6.1 °F - -0.0 °F 76% 30.40 in 10.0 mi Calm Calm - N/A   Clear
5:52 AM 5.0 °F -2.1 °F -0.9 °F 76% 30.43 in 10.0 mi South 3.5 mph - N/A   Clear
6:52 AM 3.0 °F - -0.9 °F 84% 30.45 in 10.0 mi Calm Calm - N/A   Clear
7:52 AM 3.9 °F - -0.0 °F 84% 30.46 in 10.0 mi Calm Calm - N/A   Clear
8:52 AM 15.1 °F - 1.0 °F 54% 30.46 in 10.0 mi Calm Calm - N/A   Clear
9:52 AM 19.9 °F - -5.1 °F 33% 30.45 in 10.0 mi Calm Calm - N/A   Clear
10:52 AM 24.1 °F - -2.9 °F 31% 30.43 in 10.0 mi Calm Calm - N/A   Clear
11:52 AM 25.0 °F 20.7 °F -2.9 °F 30% 30.42 in 10.0 mi SSW 3.5 mph - N/A   Clear
12:52 PM 28.0 °F - -2.0 °F 27% 30.41 in 10.0 mi Calm Calm - N/A   Clear
1:52 PM 32.0 °F - -5.1 °F 20% 30.38 in 10.0 mi Calm Calm - N/A   Clear
2:52 PM 33.1 °F - -4.0 °F 20% 30.34 in 10.0 mi Calm Calm - N/A   Clear
3:52 PM 33.1 °F 30.0 °F 1.0 °F 26% 30.33 in 10.0 mi SSW 3.5 mph - N/A   Clear
4:52 PM 33.1 °F 28.7 °F 1.9 °F 27% 30.30 in 10.0 mi South 4.6 mph - N/A   Clear
5:52 PM 32.0 °F 24.8 °F 3.0 °F 29% 30.29 in 10.0 mi SSE 8.1 mph - N/A   Clear
6:52 PM 30.9 °F 24.3 °F 3.9 °F 32% 30.30 in 10.0 mi South 6.9 mph - N/A   Mostly Cloudy
7:52 PM 30.0 °F 26.5 °F 3.9 °F 33% 30.27 in 10.0 mi SSE 3.5 mph - N/A   Overcast
8:52 PM 30.9 °F 25.2 °F 3.0 °F 31% 30.25 in 10.0 mi SSE 5.8 mph - N/A   Overcast
9:52 PM 27.0 °F 20.5 °F 18.0 °F 69% 30.26 in 2.5 mi SSE 5.8 mph - 0.00 in Snow Light Snow
10:02 PM 26.6 °F 17.5 °F 19.4 °F 74% 30.20 in 1.5 mi South 9.2 mph - 0.00 in Snow Light Snow
10:11 PM 26.6 °F 20.0 °F 21.2 °F 80% 30.20 in 1.2 mi SSE 5.8 mph - 0.00 in Snow Light Snow
10:21 PM 24.8 °F 20.5 °F 21.2 °F 86% 30.20 in 1.0 mi South 3.5 mph - 0.00 in Snow Light Snow
10:31 PM 24.8 °F - 21.2 °F 86% 30.20 in 1.2 mi Calm Calm - 0.01 in Snow Light Snow
10:40 PM 24.8 °F - 21.2 °F 86% 30.19 in 1.8 mi Calm Calm - 0.01 in Snow Light Snow
10:52 PM 25.0 °F - 23.0 °F 92% 30.25 in 1.5 mi Calm Calm - 0.01 in Snow Light Snow
11:02 PM 24.8 °F - 23.0 °F 93% 30.18 in 1.2 mi Calm Calm - 0.01 in Snow Light Snow
11:04 PM 24.8 °F - 23.0 °F 93% 30.18 in 1.0 mi Calm Calm - 0.01 in Snow Light Snow
11:11 PM 24.8 °F - 21.2 °F 86% 30.18 in 1.0 mi Calm Calm - 0.01 in Snow Light Snow
11:23 PM 24.8 °F - 23.0 °F 93% 30.18 in 0.8 mi Calm Calm - 0.02 in Snow Light Snow
11:52 PM 25.0 °F 19.3 °F 23.0 °F 92% 30.23 in 0.8 mi SE 4.6 mph - 0.05 in Snow Light Snow